Terminal Aerodrome Forecast
Issued by NWS Portland, OR

Home | Current Version | Previous Version | Text Only | Print | Product List | Glossary On
Versions: 1 2 3 4 5 6 7 8 9 10 11 12 13 14 15 16 17 18 19 20 21 22 23 24 25 26 27 28 29 30 31 32 33 34 35 36 37 38 39 40 41 42 43 44 45 46 47 48 49 50
000
FTUS46 KPQR 260952 AAC
TAFPDX
TAF AMD
KPDX 260952Z 2610/2706 09004KT P6SM FEW002
      TEMPO 2610/2614 00000KT 1/2SM FG VV002
     FM261400 VRB03KT 1/2SM FG VV002
     FM262030 VRB03KT 1SM BR BKN002
     FM262100 00000KT P6SM SCT003 SCT250=

USA.gov is the U.S. government's official web portal to all federal, state and local government web resources and services.